STARLINK-34101 (63812 NORAD) Tracking and Keplerian Element Data

This shows tracking and keplerian element data for the satellite.

Feedback or suggestion? Click here.




ElementValue
Catalog63812
NameSTARLINK-34101
Epoch Orbit3639
Epoch Day354.14349298
Epoch Year2025
RAAN261.3903
Inclination43.0013
Eccentricity0.0001858
Argument of Perigee263.7284
Mean Anonmoly96.3356
Mean Motion15.27582111
Decay Rate0.00012549
L11 63812U 25092J 25354.14349298 .00012549 00000+0 46475-3 0 9996
L22 63812 43.0013 261.3903 0001858 263.7284 96.3356 15.27582111 36397



Live tracking and technical data element details for STARLINK-34101 (NORAD 63812). STARLINK-34101 can be tracked NOW for your location showing map with azimuth and elevation plus other details from your city location.







IsCatalogInMostPopularTable: catalog: 63812, numindb: 2
Update: records affected: 1



GetName: 63812 STARLINK-34101

Hit Count: updated at: Sat, 07 Feb 2026 06:49:06 GMT